{"data":{"norad_id":57877,"intl_designator":"2023-144P","name":"STARLINK-30284","alt_names":[],"object_type":"PAYLOAD","status":"ACTIVE","operator":null,"country":"US","launch_date":"2023-09-16","launch_site_code":"AFETR","launch_vehicle":null,"mission":null,"orbit_class":"UNKNOWN","rcs_meters":null,"size_class":null,"mass_kg":null,"dimensions":null,"purposes":["comms"],"wikipedia_slug":null,"has_3d_model":false,"image_url":null,"decayed_at":null,"tle_current":{"epoch":"2026-09-20T07:29:29.950944Z","epoch_age_seconds":151373,"freshness":"FRESH","line1":"1 57877U 23144P   26263.31215221  .00000361  00000+0  22654-4 0  9996","line2":"2 57877  43.0029 229.4366 0001594 276.9475  83.1196 15.27578370167822","mean_motion":15.2757837,"eccentricity":0.0001594,"inclination_deg":43.0029,"raan_deg":229.4366,"arg_perigee_deg":276.9475,"mean_anomaly_deg":83.1196,"bstar":2.2654e-5,"rev_number":16782,"period_min":94.266849300832,"perigee_km":481.96030300867,"apogee_km":484.14765069209,"semimajor_km":6861.1909768504,"source":"CELESTRAK","updated_at":"2026-09-21T09:00:33.718562Z"}}}